Fort Knox, KY

3:52 PM EST on December 11, 2019 (GMT -0500)
Godman Army Air Field

Weather History for KFTK - October, 2019

Change the Weather History Date:

Monday, October 7, 2019

  Actual Average Record
Temperature  
Mean Temperature 56 °F -  
Max Temperature 63 °F 69 °F 89 °F (2007)
Min Temperature 49 °F 47 °F 32 °F (2000)
Degree Days  
Heating Degree Days 9    
Growing Degree Days 6 (Base 50)    
Moisture  
Dew Point 53 °F    
Average Humidity 93    
Maximum Humidity 100    
Minimum Humidity 64    
Precipitation  
Precipitation 1.19 in - - ()
Sea Level Pressure  
Sea Level Pressure 30.19 in    
Wind  
Wind Speed 5 mph (NNE)    
Max Wind Speed 9 mph    
Max Gust Speed -    
Visibility 8 miles    
Events Rain    
Averages and records for this station are not official NWS values.
T = Trace of Precipitation, MM = Missing Value Source: NWS Daily Summary

Daily Weather History Graph

Daily Weather History Graph

Search for Another Location

Airport or City:

Astronomy

Oct. 07, 2019 Rise Set
Actual Time 7:44 AM EDT 7:18 PM EDT
Civil Twilight 7:18 AM EDT 7:44 PM EDT
Nautical Twilight 6:47 AM EDT 8:14 PM EDT
Astronomical Twilight 6:17 AM EDT 8:45 PM EDT
Moon 4:32 PM EDT (10/7) 1:44 AM EDT (10/7)
Length of Visible Light 12h 25m
Length of Day
11h 33m
Waxing Gibbous, 69% of the Moon is Illuminated
Oct 7
Waxing Gibbous
Oct 13
Full
Oct 21
Last Quarter
Oct 27
New
Nov 4
First Quarter

Hourly Weather History & Observations

Time (EDT) Temp. Dew Point Humidity Pressure Visibility Wind Dir Wind Speed Gust Speed Precip Events Conditions
12:11 AM 60.8 °F 60.8 °F 100% 30.16 in 9.0 mi NNW 6.9 mph - N/A Rain Rain
12:56 AM 57.4 °F 55.6 °F 94% 30.16 in 10.0 mi NNE 9.2 mph - 0.05 in Rain Light Rain
1:11 AM 57.2 °F 57.2 °F 100% 30.15 in 10.0 mi NNE 8.1 mph - N/A Rain Light Rain
1:56 AM 55.6 °F 55.2 °F 99% 30.15 in 6.0 mi North 8.1 mph - 0.07 in Rain Rain
2:11 AM 55.4 °F 55.4 °F 100% 30.14 in 4.0 mi North 5.8 mph - N/A Rain Rain
2:41 AM 55.4 °F 55.4 °F 100% 30.15 in 2.8 mi North 4.6 mph - N/A Rain Heavy Rain
2:56 AM 55.4 °F 55.4 °F 100% 30.14 in 4.0 mi NNE 5.8 mph - 0.38 in Rain Rain
3:11 AM 55.4 °F 55.4 °F 100% 30.15 in 7.0 mi NE 3.5 mph - N/A Rain Light Rain
3:26 AM 55.4 °F 55.4 °F 100% 30.14 in 2.2 mi NE 3.5 mph - N/A Rain Heavy Rain
3:56 AM 55.2 °F 55.2 °F 100% 30.15 in 1.6 mi NNE 3.5 mph - 0.49 in Rain Heavy Rain
4:11 AM 55.4 °F 55.4 °F 100% 30.16 in 4.0 mi NNW 3.5 mph - N/A Rain Rain
4:56 AM 55.4 °F 55.4 °F 100% 30.16 in 10.0 mi North 4.6 mph - 0.18 in Rain Light Rain
5:02 AM 55.4 °F 55.4 °F 100% 30.14 in 10.0 mi North 6.9 mph - N/A   Light Drizzle
5:12 AM 55.4 °F 55.4 °F 100% 30.14 in 10.0 mi North 6.9 mph - N/A   Overcast
5:44 AM 55.4 °F 55.4 °F 100% 30.17 in 10.0 mi North 5.8 mph - N/A   Overcast
5:48 AM 55.4 °F 55.4 °F 100% 30.17 in 10.0 mi North 5.8 mph - N/A   Light Drizzle
5:56 AM 55.9 °F 55.9 °F 100% 30.17 in 10.0 mi North 8.1 mph - 0.01 in Rain Light Rain
6:30 AM 55.4 °F 51.8 °F 88% 30.17 in 10.0 mi NNE 5.8 mph - N/A   Overcast
6:54 AM 55.4 °F 53.6 °F 94% 30.17 in 10.0 mi North 3.5 mph - N/A Rain Light Rain
6:56 AM 54.7 °F 54.1 °F 98% 30.17 in 10.0 mi North 3.5 mph - 0.00 in Rain Light Rain
7:11 AM 55.4 °F 55.4 °F 100% 30.19 in 10.0 mi North 3.5 mph - N/A Rain Light Rain
7:17 AM 55.4 °F 55.4 °F 100% 30.19 in 10.0 mi Calm Calm - N/A   Overcast
7:32 AM 55.4 °F 55.4 °F 100% 30.17 in 10.0 mi NE 4.6 mph - N/A   Overcast
7:56 AM 54.9 °F 54.9 °F 100% 30.18 in 10.0 mi NE 6.9 mph - 0.01 in   Overcast
8:56 AM 54.9 °F 54.0 °F 97% 30.19 in 10.0 mi North 5.8 mph - N/A   Overcast
9:31 AM 55.4 °F 55.4 °F 100% 30.21 in 10.0 mi NNW 5.8 mph - N/A   Overcast
9:56 AM 55.2 °F 54.7 °F 98% 30.22 in 10.0 mi North 3.5 mph - N/A   Overcast
10:55 AM 55.4 °F 53.6 °F 94% 30.22 in 10.0 mi NNE 4.6 mph - N/A Rain Light Rain
10:56 AM 55.8 °F 54.3 °F 95% 30.22 in 10.0 mi NNE 4.6 mph - 0.00 in Rain Light Rain
11:02 AM 55.4 °F 55.4 °F 100% 30.22 in 10.0 mi North 3.5 mph - N/A   Overcast
11:56 AM 56.7 °F 53.4 °F 89% 30.22 in 10.0 mi ENE 5.8 mph - 0.00 in   Overcast
12:11 PM 57.2 °F 53.6 °F 88% 30.24 in 10.0 mi ENE 5.8 mph - N/A   Overcast
12:56 PM 57.6 °F 52.3 °F 83% 30.24 in 10.0 mi NE 5.8 mph - N/A   Overcast
1:18 PM 59.0 °F 53.6 °F 82% 30.22 in 10.0 mi East 6.9 mph - N/A   Overcast
1:56 PM 58.5 °F 51.6 °F 78% 30.22 in 10.0 mi Calm Calm - N/A   Overcast
2:41 PM 59.0 °F 51.8 °F 77% 30.22 in 10.0 mi ENE 3.5 mph - N/A   Mostly Cloudy
2:56 PM 59.9 °F 52.3 °F 76% 30.22 in 10.0 mi NNW 6.9 mph - N/A   Overcast
3:56 PM 61.5 °F 51.6 °F 70% 30.21 in 10.0 mi ENE 3.5 mph - N/A   Scattered Clouds
4:56 PM 62.8 °F 50.4 °F 64% 30.20 in 10.0 mi NE 6.9 mph - N/A   Clear
5:56 PM 62.6 °F 51.4 °F 67% 30.20 in 10.0 mi NNW 5.8 mph - N/A   Clear
6:56 PM 61.3 °F 50.7 °F 68% 30.20 in 10.0 mi ENE 3.5 mph - N/A   Clear
7:26 PM 59.0 °F 51.8 °F 77% 30.20 in 0.9 mi East 3.5 mph - N/A   Haze
7:41 PM 59.0 °F 51.8 °F 77% 30.20 in 1.2 mi Calm Calm - N/A   Haze
7:44 PM 59.0 °F 51.8 °F 77% 30.20 in 10.0 mi NE 2.3 mph - N/A   Scattered Clouds
7:56 PM 55.8 °F 52.5 °F 89% 30.20 in 10.0 mi Calm Calm - N/A   Clear
8:43 PM 53.6 °F 53.6 °F 100% 30.22 in 10.0 mi Calm Calm - N/A   Clear
8:56 PM 51.8 °F 51.8 °F 100% 30.21 in 10.0 mi Calm Calm - N/A   Clear
9:29 PM 51.8 °F 51.8 °F 100% 30.23 in 10.0 mi Calm Calm - N/A   Clear
9:56 PM 51.3 °F 51.3 °F 100% 30.23 in 10.0 mi Calm Calm - N/A   Clear
10:26 PM 50.0 °F 50.0 °F 100% 30.24 in 1.6 mi Calm Calm - N/A   Clear
10:41 PM 50.0 °F 50.0 °F 100% 30.24 in 1.9 mi Calm Calm - N/A   Clear
10:56 PM 50.2 °F 50.2 °F 100% 30.24 in 1.9 mi Calm Calm - N/A   Clear
11:11 PM 50.0 °F 50.0 °F 100% 30.24 in 1.4 mi Calm Calm - N/A   Clear
11:36 PM 50.0 °F 50.0 °F 100% 30.24 in 1.0 mi Calm Calm - N/A   Clear
11:46 PM 50.0 °F 50.0 °F 100% 30.24 in 1.2 mi Calm Calm - N/A   Clear
11:56 PM 49.3 °F 49.3 °F 100% 30.24 in 1.5 mi Calm Calm - N/A   Clear